This demonstration page uses our WeatherBlox Daily Observations layout. Learn more.

Left ArrowRight Arrow

Hourly Observations for August 29, 2021

Temp ( °F °C ) Dew Point ( °F °C ) Humidity (%) Winds ( mph kmh ) Pressure ( in mb ) Visibility ( mi km ) Precip ( " mm )
12:53 am 00:53 Cloudy with Haze 74 23.3 42 5.6 32 32 NNW 3 6 29.72 1007 4 6 0.00 0.00
1:42 am 01:42 Cloudy with Haze 71 21.7 42 5.6 35 35 Calm 29.74 1007 5 8 0.00 0.00
1:53 am 01:53 Cloudy with Haze 71 21.7 43 6.1 36 36 Calm 29.72 1007 5 8 0.00 0.00
2:53 am 02:53 Cloudy with Haze 70 21.1 42 5.6 37 37 Calm 29.73 1007 4 6 0.00 0.00
3:23 am 03:23 Cloudy with Haze 69 20.6 43 6.1 39 39 Calm 29.74 1007 4 6 0.00 0.00
3:53 am 03:53 Cloudy with Haze 69 20.6 43 6.1 39 39 Calm 29.73 1007 4 6 0.00 0.00
4:53 am 04:53 Cloudy with Haze 67 19.4 43 6.1 42 42 Calm 29.73 1007 5 8 0.00 0.00
5:53 am 05:53 Cloudy with Haze 64 17.8 42 5.6 45 45 Calm 29.74 1007 5 8 0.00 0.00
6:53 am 06:53 Cloudy with Haze 63 17.2 45 7.2 52 52 Calm 29.76 1008 3 5 0.00 0.00
7:53 am 07:53 Cloudy with Haze 67 19.4 43 6.1 42 42 Calm 29.78 1008 3 5 0.00 0.00
8:53 am 08:53 Cloudy with Haze 73 22.8 46 7.8 38 38 NW 3 6 29.78 1008 3 5 0.00 0.00
9:53 am 09:53 Cloudy with Haze 83 28.3 43 6.1 24 24 N 5 7 29.76 1008 3 5 0.00 0.00
10:53 am 10:53 Cloudy with Haze 88 31.1 44 6.7 22 22 Calm 29.76 1008 4 6 0.00 0.00
11:53 am 11:53 Cloudy with Haze 90 32.2 45 7.2 21 21 SSE 3 6 29.75 1007 3 5 0.00 0.00
12:53 pm 12:53 Cloudy with Haze 94 34.4 45 7.2 18 18 S 5 7 29.73 1007 4 6 0.00 0.00
1:53 pm 13:53 Cloudy with Haze 97 36.1 45 7.2 17 17 Calm 29.71 1006 4 6 0.00 0.00
2:53 pm 14:53 Cloudy with Haze 100 37.8 43 6.1 14 14 S 8 13 29.69 1006 4 6 0.00 0.00
3:53 pm 15:53 Cloudy with Haze 101 38.3 43 6.1 14 14 VRB 3 6 29.67 1005 4 6 0.00 0.00
4:19 pm 16:19 Cloudy with Haze 101 38.3 44 6.7 14 14 SSE 9 15 29.65 1004 4 6 0.00 0.00
4:53 pm 16:53 Cloudy with Haze 101 38.3 43 6.1 14 14 S 8 13 29.66 1004 5 8 0.00 0.00
5:53 pm 17:53 Cloudy with Haze 100 37.8 46 7.8 16 16 SSE 10 17 29.65 1004 5 8 0.00 0.00
6:53 pm 18:53 Mostly Cloudy with Haze 94 34.4 46 7.8 19 19 SE 7 11 29.65 1004 4 6 0.00 0.00
7:53 pm 19:53 Cloudy with Haze 90 32.2 47 8.3 23 23 Calm 29.66 1004 4 6 0.00 0.00
8:53 pm 20:53 Cloudy with Haze 87 30.6 46 7.8 24 24 Calm 29.67 1005 5 8 0.00 0.00
9:53 pm 21:53 Cloudy with Haze 81 27.2 46 7.8 29 29 N 5 7 29.69 1005 5 8 0.00 0.00
10:53 pm 22:53 Cloudy with Haze 77 25 46 7.8 33 33 Calm 29.69 1006 5 8 0.00 0.00
11:53 pm 23:53 Cloudy with Haze 76 24.4 47 8.3 36 36 Calm 29.69 1006 5 8 0.00 0.00

Powered by AerisWeather